Погода в Анжаре

Ливан     33°43′44″N   35°55′56″E
темп.,
°C
ветер,
м/с
пор.,
м/с
влажн.,
%
обл.,
%
осадки,
мм/ч
давл.,
гПа
погр.,
м
10 августа, ср
ср1000:00+17юз34830 0.0 101099
03:00+16юз34830 0.0 100972
06:00+15юз34790 0.0 100947
09:00+22юз44490 0.0 1008526
12:00+28зюз56270 0.0 10071106
15:00+29зюз66250 0.0 10061214
18:00+26зюз45340 0.0 1006795
21:00+19зюз34630 0.0 100877
11 августа, чт
чт1100:00+17юз45830 0.0 100896
03:00+16юз34896 0.0 100879
06:00+15ююз34880 0.0 100954
09:00+22зюз34390 0.0 1009538
12:00+28зюз45220 0.0 10071264
15:00+30з55220 0.0 10061349
18:00+27з33290 0.0 1007790
21:00+20з22550 0.0 100922
12 августа, пт
пт1200:00+18юз22690 0.0 101018
03:00+17юз12640 0.0 100914
06:00+16юз11560 0.0 101011
09:00+24зюз12240 0.0 1009371
12:00+30зюз44100 0.0 10081085
15:00+33зюз66130 0.0 10061409
18:00+29зюз44200 0.0 1007791
21:00+21юз23500 0.0 100924
13 августа, сб
сб1300:00+19ююз22560 0.0 100921
03:00+17ююз33450 0.0 100925
06:00+16ююз33370 0.0 100920
09:00+24зюз33170 0.0 1009354
12:00+31зюз4480 0.0 1007960
15:00+32зюз65120 0.0 10051119
18:00+28з44240 0.0 1006631
21:00+20юз33560 0.0 100846
14 августа, вс
вс1400:00+18юз34540 0.0 100943
03:00+17ююз34450 0.0 100834
06:00+16ююз33410 0.0 100824
09:00+24юз33220 0.0 1008369
12:00+30зюз54140 0.0 1007983
15:00+32зюз65180 0.0 10051158
18:00+28з44270 0.0 1006672
21:00+20юз33590 0.0 100837